GFSGL_500_rhum_114.txt.gz
RH
51 28 35 33 30 34 20 26 33 38 70 65 61 57 51 47 41 38 88 96 96 69 47 15 10 15 40 44 76 66 29 13 13 14 14 15 17 44 83 100 99 92 94
94 76 80 60 55 86 100 65 71 78 78 69 62 40 36 31 32 43 86 91 80 77 18 10 15 28 49 53 69 67 53 21 16 16 14 13 15 18 54 96 96 95 96
100 99 94 100 92 66 45 60 90 98 100 93 60 58 55 50 40 68 97 97 84 82 32 18 26 67 55 60 71 44 21 18 17 14 13 13 15 21 41 96 95 88 95
99 100 99 100 100 96 73 85 93 98 100 89 91 90 82 52 59 73 64 68 65 92 60 52 56 53 62 76 47 22 21 17 16 17 13 14 18 32 73 85 97 97 93
98 95 98 98 97 100 99 82 83 89 100 100 99 91 51 75 95 92 96 94 85 97 91 52 44 58 74 78 27 24 22 17 16 15 16 16 26 20 52 83 97 97 96
100 99 93 96 95 92 92 88 85 85 91 98 99 80 67 88 96 98 98 98 98 98 78 55 60 78 99 54 36 31 26 20 17 21 19 11 19 22 34 40 66 88 95
97 99 99 100 99 98 99 95 93 96 94 91 89 91 90 97 96 97 97 98 97 75 58 75 93 100 74 65 56 40 35 20 20 63 83 24 14 23 53 77 58 80 97
97 96 98 97 96 99 96 97 97 97 95 96 98 97 97 98 98 99 98 93 78 74 91 100 100 88 80 77 66 56 49 19 24 74 93 92 58 47 59 76 84 99 97
83 98 99 96 99 99 98 99 98 98 99 99 99 98 99 98 97 97 90 66 79 89 95 98 96 90 79 65 55 63 63 21 22 84 96 91 97 99 97 97 95 97 97
76 82 94 96 98 96 98 99 98 97 99 98 97 99 99 98 89 83 87 88 92 100 100 94 82 79 79 64 65 66 59 24 21 55 96 98 99 100 97 97 98 97 98
20 28 41 56 88 97 93 98 98 98 99 99 99 100 100 94 98 98 98 98 97 94 95 91 80 77 73 75 78 78 69 32 27 34 92 96 97 97 98 97 97 97 98
32 32 35 34 36 68 93 74 91 93 81 96 92 93 98 99 97 94 91 100 95 77 92 79 73 62 63 60 87 83 81 76 35 36 43 90 95 98 97 98 98 98 98
63 63 63 66 67 59 58 48 46 54 73 87 76 50 57 83 95 98 97 100 81 99 99 98 96 100 78 87 80 85 76 82 85 54 36 47 73 92 97 97 98 98 98
38 37 32 30 31 37 50 58 61 66 73 80 88 90 82 86 82 76 69 85 91 83 71 82 91 97 96 91 94 85 83 80 84 76 70 81 78 71 92 97 98 98 97
12 11 11 12 13 14 13 13 13 13 15 19 24 37 52 63 72 79 88 95 97 90 83 68 61 70 73 91 100 93 91 94 97 93 90 88 85 89 82 85 97 98 97
11 11 11 10 10 10 10 9 9 8 8 8 8 8 8 8 9 12 18 27 36 53 71 82 91 88 91 98 100 100 100 93 91 89 97 100 99 86 89 90 87 99 98
16 15 14 13 12 11 11 11 12 12 12 11 11 10 10 10 9 8 7 7 7 7 9 11 19 36 65 83 85 85 83 77 76 69 79 80 98 100 100 99 98 99 98
24 24 23 20 17 16 16 16 16 15 13 11 11 11 11 11 11 11 11 10 9 8 8 7 7 7 7 10 21 40 80 90 87 96 97 95 95 100 100 100 100 100 100
30 31 28 24 23 22 22 21 20 20 19 19 20 20 19 18 16 15 15 15 14 14 14 13 10 10 9 8 7 7 8 10 33 80 98 100 100 100 100 100 100 100 100
33 35 34 29 25 23 22 21 20 21 22 23 23 22 22 20 19 19 19 18 18 17 16 15 15 16 14 11 10 9 8 8 7 8 9 45 88 97 100 100 100 100 100
37 35 30 27 23 21 19 18 20 22 22 22 22 23 23 22 22 20 19 18 18 20 20 19 20 20 18 16 15 14 12 12 10 8 8 8 7 12 35 68 94 100 100
36 32 29 27 24 22 22 24 24 23 22 22 21 20 19 19 18 18 17 15 14 14 15 16 17 17 18 19 18 17 16 15 13 12 12 10 9 9 8 8 11 18 33
40 36 33 30 29 28 29 28 27 27 26 23 21 18 14 8 6 5 5 6 6 6 5 5 6 7 9 11 13 15 15 15 15 14 13 13 12 12 11 11 12 12 11
42 37 35 35 33 32 32 32 32 28 25 17 8 6 7 10 13 16 18 18 17 17 16 13 10 8 7 7 6 7 8 10 11 13 14 14 14 14 14 14 13 14 15
43 44 42 41 39 40 41 36 31 16 7 8 14 18 20 19 20 22 24 23 22 22 21 18 15 14 13 13 13 12 13 14 14 14 14 14 15 16 16 17 18 18 18
51 48 47 47 49 45 40 23 8 11 17 22 25 27 28 28 29 30 30 29 27 28 28 23 19 18 18 20 20 20 19 18 17 16 15 15 14 14 14 14 14 14 14

GFSGL_500_rhum_117.txt.gz
RH
60 77 45 7 20 16 8 17 31 26 44 45 43 41 8 8 7 31 45 76 76 69 78 82 97 97 94 74 43 28 36 39 35 71 48 22 15 14 15 16 20 39 84
98 99 56 15 7 10 24 87 80 80 84 94 63 76 14 7 11 50 78 72 82 87 63 89 98 97 77 26 12 16 21 38 42 66 61 57 29 15 15 14 15 17 31
98 90 96 74 36 19 64 100 99 90 100 89 71 68 64 14 21 52 70 61 67 66 90 96 97 95 60 20 34 48 62 71 65 50 54 28 19 17 14 13 12 17 21
96 92 97 98 93 44 46 99 95 74 61 79 67 69 73 44 56 58 61 79 98 97 91 97 98 95 76 36 41 45 65 52 59 44 21 20 16 15 13 13 15 16 19
99 97 95 100 99 84 93 84 75 62 59 58 69 83 74 69 68 70 91 100 97 75 87 97 98 95 95 80 66 56 50 68 72 27 26 25 21 18 13 14 18 19 26
98 98 99 92 96 96 93 90 60 66 66 42 86 98 96 98 100 98 97 98 92 94 85 71 68 90 93 94 86 44 54 78 68 32 34 33 30 19 18 13 14 13 23
100 94 99 100 98 98 97 96 84 84 88 91 88 95 98 98 98 98 96 88 94 97 96 97 98 98 99 98 62 61 76 78 57 48 47 44 42 17 28 51 37 12 23
88 98 98 98 99 98 98 99 99 99 100 98 100 99 88 88 98 100 95 96 96 98 95 97 96 96 97 84 65 81 82 66 61 60 58 58 46 15 50 91 91 42 24
82 91 98 96 100 98 99 99 100 98 94 99 100 100 96 100 97 97 97 98 97 98 97 95 89 97 70 83 92 91 85 82 71 63 54 52 41 20 25 83 97 87 41
24 33 80 96 97 99 99 99 99 99 98 99 98 97 96 98 98 97 98 98 98 99 99 99 95 93 94 95 97 94 84 77 66 66 66 60 50 37 24 84 97 97 100
29 28 26 48 86 97 100 97 97 96 96 99 98 97 98 99 100 99 99 99 95 97 97 98 96 98 99 99 99 97 85 78 75 67 60 52 58 50 36 33 94 96 93
66 67 62 60 49 56 94 97 99 99 94 96 98 97 98 99 100 99 100 99 99 99 99 99 99 99 96 98 98 98 90 87 77 67 56 61 66 66 62 36 42 91 96
53 49 50 50 54 55 58 74 95 98 100 100 98 99 99 99 99 97 96 97 98 99 99 98 96 98 97 92 90 93 83 69 70 67 53 71 76 68 79 63 56 57 90
16 15 14 14 15 17 21 22 22 31 46 66 82 93 94 89 92 95 93 88 79 79 88 80 82 94 98 95 98 95 93 97 92 94 73 73 77 80 73 83 69 58 58
11 11 11 11 11 11 10 10 9 9 9 10 11 13 16 34 64 73 64 42 38 50 56 60 78 86 88 86 82 69 66 64 78 95 94 88 81 75 82 82 80 89 96
14 14 15 14 13 12 12 12 12 12 11 10 9 8 8 7 7 7 8 10 14 15 14 15 15 18 27 40 57 77 89 80 67 68 66 64 82 80 78 95 95 92 99
18 21 22 19 17 18 18 17 16 15 15 14 12 12 11 10 10 9 9 9 9 8 7 7 7 7 8 8 10 14 19 34 56 78 84 88 100 98 86 82 94 99 91
23 23 23 27 26 24 21 19 18 16 16 15 14 14 13 13 12 12 12 12 12 12 12 12 10 9 8 8 8 7 7 8 10 18 29 50 75 78 79 83 81 78 81
23 22 25 26 27 25 23 22 20 18 16 16 15 15 14 14 13 13 13 13 13 13 13 12 12 11 11 10 10 10 9 8 8 7 8 10 12 20 32 58 78 84 87
28 27 27 28 28 26 24 22 20 18 17 16 15 16 15 15 15 15 15 15 14 13 13 12 11 11 11 10 10 10 10 10 10 10 10 8 8 7 8 9 15 37 76
35 32 30 27 27 27 24 22 21 19 18 17 16 15 16 15 15 14 13 12 11 10 10 10 9 9 9 10 10 10 11 11 12 12 12 12 13 11 11 10 8 7 8
35 32 32 30 29 28 26 23 21 19 18 17 18 18 17 16 14 13 12 9 7 6 6 5 5 4 4 4 5 6 8 11 14 16 16 17 19 19 18 15 14 12 10
38 40 39 36 33 29 26 25 24 24 23 22 20 18 16 14 10 7 8 10 12 14 15 16 15 16 16 16 13 9 7 5 6 8 12 15 18 20 20 20 20 18 17
43 43 40 35 31 30 30 31 30 28 26 23 22 16 8 8 11 13 14 16 18 20 21 21 21 22 22 22 20 18 16 14 10 7 7 8 10 12 15 18 19 19 19
44 43 42 38 35 37 38 36 34 29 27 20 9 10 12 12 12 13 14 17 20 23 25 25 26 27 28 27 24 23 20 16 13 12 11 11 11 13 14 15 17 18 19
48 47 45 42 45 45 44 38 33 28 13 10 13 13 13 14 16 20 22 24 25 27 28 30 31 32 33 32 30 29 25 19 18 17 17 17 16 16 17 18 19 20 20

GFSGL_500_rhum_120.txt.gz
RH
33 31 38 35 60 79 57 28 27 22 16 12 10 13 26 95 94 64 27 18 10 10 20 40 44 86 65 63 80 73 89 85 84 67 49 64 61 62 60 29 20 17 14
67 63 64 88 88 97 22 11 9 15 23 23 20 13 16 97 94 55 27 13 9 9 10 15 35 80 74 61 82 91 98 96 80 60 50 32 40 50 55 60 49 32 19
71 67 79 97 97 68 54 35 45 23 26 43 66 50 53 95 79 18 23 28 9 11 15 23 55 84 73 76 72 91 99 97 75 36 41 57 54 69 54 43 29 22 20
86 91 96 98 94 98 55 68 73 77 85 97 97 99 87 91 90 79 51 34 10 15 32 33 65 78 80 74 92 98 97 78 26 61 74 78 65 58 60 23 21 18 17
98 96 93 97 98 98 82 89 86 98 99 98 100 99 98 89 91 87 66 54 36 31 37 46 72 80 88 94 96 97 98 94 46 48 56 62 56 62 41 24 25 21 15
100 94 97 100 100 100 97 90 100 99 99 100 99 97 97 95 98 98 94 63 42 33 44 48 68 95 92 97 95 97 98 96 75 70 65 49 64 63 41 29 35 37 33
96 98 99 99 100 99 97 96 98 99 86 85 80 95 100 97 96 85 87 79 57 53 56 65 88 98 97 96 95 95 96 94 95 90 86 48 64 66 37 45 54 50 37
73 88 99 99 100 99 100 99 94 84 86 98 99 86 84 81 83 97 99 87 90 96 96 96 95 96 93 96 96 97 96 99 98 97 96 61 70 64 45 58 52 44 31
34 45 66 98 99 99 100 100 100 99 96 98 92 92 73 75 86 84 83 95 94 97 98 94 98 97 96 95 97 95 91 93 100 99 90 74 83 60 67 55 49 40 42
64 47 33 48 94 98 98 100 99 99 100 93 99 96 99 99 98 98 98 98 97 99 98 98 99 98 98 98 98 97 85 94 94 96 86 89 77 67 65 56 58 52 42
73 68 73 79 73 77 89 98 98 100 98 100 100 98 96 99 99 99 98 98 99 98 97 99 96 98 99 97 99 100 95 93 98 98 96 95 91 88 68 61 55 49 48
59 54 48 43 43 38 46 78 96 98 99 97 97 97 99 99 98 98 98 100 100 98 98 97 99 99 100 99 98 98 99 99 99 99 98 100 100 93 80 74 67 54 56
24 21 15 14 14 15 17 16 15 33 51 76 94 96 99 97 98 98 100 100 100 100 99 100 99 98 98 99 99 99 99 98 99 99 96 98 97 92 80 72 65 58 52
12 13 14 16 17 14 12 13 13 13 13 12 12 11 18 45 80 98 100 98 94 96 95 93 96 98 98 98 98 98 98 98 99 99 99 95 80 69 74 69 59 69 75
14 15 16 16 16 14 11 10 10 9 10 10 9 9 9 8 8 8 8 12 25 42 62 81 88 88 96 96 90 85 83 78 70 74 90 95 90 88 81 75 60 70 88
15 14 15 16 17 15 14 13 12 12 11 11 10 10 9 9 8 8 7 8 7 7 6 6 7 10 18 29 42 58 76 65 49 45 61 71 66 58 59 51 40 38 74
19 21 23 22 22 22 22 22 22 20 16 15 13 11 11 10 10 10 9 8 8 7 8 8 8 8 8 8 6 6 6 6 8 9 26 34 33 44 62 68 54 36 39
23 22 23 23 23 23 22 20 20 19 18 16 16 15 14 13 12 12 12 12 11 11 10 10 9 9 8 8 8 8 9 8 8 6 6 5 6 9 17 23 32 53 66
27 28 28 26 24 23 22 21 19 17 16 14 14 14 13 12 12 11 10 10 10 10 10 9 9 9 10 10 9 9 8 8 8 8 8 8 7 6 5 6 7 11 17
24 25 26 26 26 24 22 19 18 18 16 15 14 14 13 12 12 11 11 11 11 10 10 8 7 7 6 6 6 7 7 7 8 8 8 8 7 7 8 8 6 6 6
26 28 30 31 28 23 22 20 18 17 17 17 17 16 14 12 12 12 13 13 11 9 8 7 6 5 5 4 5 5 5 6 6 6 6 6 7 7 7 7 8 8 8
34 34 33 31 27 24 25 24 23 21 20 20 19 17 17 17 18 17 14 11 10 7 6 7 8 8 9 10 11 11 9 7 6 5 4 5 6 7 8 9 10 11 12
40 36 34 33 32 31 31 28 27 27 26 24 24 23 24 23 18 14 12 8 6 8 10 10 10 10 11 11 13 16 17 17 16 15 13 10 8 6 6 7 9 13 17
36 37 37 37 35 34 33 31 32 31 30 31 31 29 25 19 16 11 7 9 12 12 12 12 12 14 16 17 17 18 22 22 20 20 20 19 17 15 14 10 8 8 12
34 39 40 38 37 37 38 40 42 41 41 39 34 27 21 16 9 10 14 14 14 15 15 15 17 20 22 23 26 26 28 28 28 27 26 24 21 19 17 14 12 10 11
38 42 42 40 41 42 47 50 50 48 44 37 29 22 12 10 16 16 16 17 18 18 18 19 20 20 20 22 24 27 30 32 33 33 32 29 25 21 17 16 15 16 16

GFSGL_500_rhum_123.txt.gz
RH
90 83 58 26 23 31 31 28 35 34 21 9 8 11 17 21 21 20 26 64 90 94 96 71 32 25 29 48 46 36 50 49 64 93 96 80 94 85 93 81 78 73 60
98 75 58 52 52 45 73 90 87 95 99 84 40 14 7 12 19 20 18 24 94 97 98 87 44 28 19 16 23 46 35 62 71 75 94 97 97 97 92 71 50 57 68
94 79 65 59 66 84 86 88 88 63 56 42 22 13 24 12 9 15 19 23 24 37 95 84 69 52 33 36 35 26 51 56 79 76 95 96 98 97 79 43 38 40 58
97 70 54 57 78 97 75 90 66 83 69 59 31 12 12 22 19 10 16 19 25 26 64 80 62 53 28 36 56 45 36 52 76 80 81 95 98 96 68 46 59 53 49
98 74 64 64 79 95 99 97 85 94 95 87 69 54 39 54 52 45 16 16 25 88 97 94 64 43 37 48 61 59 63 77 81 78 98 98 97 92 57 71 68 53 40
99 100 93 99 95 93 97 99 90 99 98 98 96 87 87 72 100 100 50 43 90 64 89 68 57 58 66 68 48 56 58 59 68 89 98 96 97 94 76 58 61 54 44
73 99 100 96 94 98 100 99 100 92 99 95 96 99 99 99 100 96 96 60 98 71 96 87 97 64 71 59 58 45 44 53 83 95 98 97 96 96 79 78 58 49 52
49 72 98 100 100 100 100 100 99 94 88 94 97 100 98 100 100 98 99 97 97 92 99 97 92 96 84 58 50 52 48 81 96 97 99 97 96 98 94 88 98 62 50
89 64 78 98 100 100 100 100 100 100 96 90 84 92 96 100 97 100 100 97 97 97 98 98 94 84 96 98 62 65 96 100 99 98 98 98 94 93 94 94 94 87 58
81 69 62 52 66 89 100 100 100 100 100 100 100 93 82 71 97 77 87 91 99 94 96 98 97 96 92 97 98 98 98 98 98 95 97 97 92 78 81 84 94 89 65
30 27 18 15 15 22 24 58 89 96 97 99 99 100 100 100 100 99 99 95 96 100 96 90 95 98 97 98 96 98 98 97 95 91 99 91 87 76 76 80 94 90 85
18 15 14 16 18 20 21 20 18 17 22 49 79 92 94 96 98 99 99 99 99 98 98 98 98 97 98 99 99 99 98 95 97 99 95 98 92 93 100 99 97 99 100
17 16 16 19 21 22 20 18 14 13 13 13 13 14 21 20 27 53 84 95 96 98 99 100 100 99 100 100 100 98 98 99 100 100 100 99 96 98 99 98 97 90 91
16 14 14 16 15 14 12 10 10 10 10 10 10 9 9 9 8 8 8 8 12 20 34 52 74 91 97 97 95 97 99 100 100 100 100 100 100 100 100 100 100 100 98
14 14 14 15 20 20 20 21 18 14 10 10 11 11 11 10 10 10 9 8 8 8 7 7 6 6 8 18 39 64 88 98 98 98 98 98 98 98 98 99 100 100 97
16 16 16 16 16 17 16 15 18 19 17 16 15 14 12 11 10 9 9 9 8 8 7 7 7 7 7 6 6 6 5 6 9 25 57 77 84 95 96 91 87 80 63
19 19 22 24 24 25 24 22 21 18 17 16 16 14 13 12 12 11 10 9 9 9 9 8 8 8 8 7 7 7 7 6 6 5 5 6 6 9 24 50 88 88 74
21 24 24 24 24 25 25 23 23 21 20 18 16 15 14 13 12 11 10 9 8 7 7 6 6 6 6 6 6 6 6 6 6 6 6 6 6 5 5 6 5 6 22
20 21 22 21 20 22 23 23 22 22 20 19 18 16 14 13 12 11 10 8 8 8 7 6 6 6 5 5 5 5 5 5 6 6 6 6 6 6 6 6 6 6 6
23 21 20 21 21 23 23 24 25 26 23 20 18 17 15 14 13 12 11 11 10 9 8 7 8 9 9 8 8 7 6 5 5 4 4 4 4 4 5 6 6 6 6
31 29 29 29 28 27 27 26 25 24 24 21 20 18 16 14 13 12 14 14 12 11 13 13 13 11 10 8 6 5 4 4 4 4 3 3 3 4 4 5 6 6 7
38 38 37 33 29 26 24 23 23 23 23 22 20 17 16 16 16 17 17 16 16 16 16 14 11 8 7 6 8 10 10 10 10 9 8 8 8 7 7 6 5 6 6
40 31 25 23 21 18 16 16 18 22 26 26 21 19 20 20 21 20 20 22 20 17 14 10 7 7 10 13 12 12 12 12 11 11 11 11 10 10 13 14 12 11 8
32 30 29 23 20 19 19 20 21 29 33 29 28 29 31 32 29 27 24 21 16 12 8 8 12 14 14 14 14 14 14 15 16 17 18 19 18 19 21 20 19 18 17
39 37 32 22 22 24 26 28 36 40 40 37 38 42 41 35 31 25 19 14 9 9 15 16 16 16 18 18 18 18 18 18 18 19 22 25 26 28 29 28 26 24 22
44 37 30 27 28 32 41 47 51 49 46 50 50 43 37 31 23 15 10 12 17 19 18 19 21 20 20 20 21 20 19 18 18 19 21 24 30 33 35 34 33 30 26